AirNav   BOSE ProFlight Aviation Headset
 
 951 users online  

1A2 Arthur Airport
Arthur, North Dakota, USA

GOING TO ARTHUR?


FAA INFORMATION EFFECTIVE 19 JULY 2018

Location

FAA Identifier: 1A2
Lat/Long: 47-06-45.4900N / 097-12-29.3300W
47-06.758167N / 097-12.488833W
47.1126361 / -97.2081472
(estimated)
Elevation: 973 ft. / 297 m (estimated)
Variation: 06E (1985)
From city: 1 mile NE of ARTHUR, ND
Time zone: UTC -5 (UTC -6 during Standard Time)
Zip code: 58006

Airport Operations

Airport use: Open to the public
Control tower: no
ARTCC: MINNEAPOLIS CENTER
FSS: GRAND FORKS FLIGHT SERVICE STATION
NOTAMs facility: GFK (NOTAM-D service available)
Attendance: UNATNDD
Wind indicator: yes
Segmented circle: no

Airport Communications

CTAF: 122.9
WX ASOS at FAR (20 nm SE): PHONE 701-298-3877

Nearby radio navigation aids

VOR radial/distance  VOR name  Freq  Var
FARr317/26.0FARGO VOR/DME116.2009E

Airport Services

Parking: tiedowns
Airframe service: NONE
Powerplant service: NONE
Bottled oxygen: NONE
Bulk oxygen: NONE

Runway Information

Runway 17/35

Dimensions: 3100 x 85 ft. / 945 x 26 m
Surface: turf, in good condition
RUNWAY 17  RUNWAY 35
Latitude: 47-07.013167N47-06.503167N
Longitude: 097-12.488833W097-12.488833W
Elevation: 973.0 ft.973.0 ft.
Traffic pattern: leftleft
Runway heading: 174 magnetic, 180 true354 magnetic, 000 true
Obstructions: none
13 FT PKD ACFT 87 FT L FM THR ON HNGR TXLANE.
20 ft. road, 117 ft. from runway, 5:1 slope to clear

Airport Ownership and Management from official FAA records

Ownership: Publicly-owned
Owner: ARTHUR ARPT AUTH
BOX 145
ARTHUR, ND 58006
Phone 701-967-8312
Manager: RICK BURGUM
BOX 145
ARTHUR, ND 58006
Phone 701-371-0540
ADL MGR PHONE 701-371-0540 OR KEVIN SKUNES 701-261-0112

Airport Operational Statistics

Aircraft based on the field: 3
Single engine airplanes: 3
    
Aircraft operations: avg 62/month *
67% transient general aviation
33% local general aviation
* for 12-month period ending 22 October 2015

Additional Remarks

NO SNOW REMOVAL AVAILABLE; CFM WINTER CONDS PRIOR TO USE WITH AMGR - CALL 701-371-0504 OR 967-8312.
50 FT TREES 125 FT L & R OF CNTRLN; 600 FT INBOUND FM RY 17 THLD.

Instrument Procedures

There are no published instrument procedures at 1A2.

Some nearby airports with instrument procedures:

5N8 - Casselton Robert Miller Regional Airport (16 nm S)
3H4 - Hillsboro Municipal Airport (16 nm N)
KFAR - Hector International Airport (20 nm SE)
KJKJ - Moorhead Municipal Airport (28 nm SE)
K74 - Robert Odegaard Field Airport (29 nm S)
 
Loc | Ops | Rwys | IFR | FBO | Links
Com | Nav | Svcs | Stats | Notes

Mandan Aero Center
 
Area around 1A2 (Arthur Airport)
 
Road maps at: MapQuest Bing Google
 
Aerial photo
WARNING: Photo may not be current or correct
Aerial photo of 1A2 (Arthur Airport)
Do you have a better or more recent aerial photo of Arthur Airport that you would like to share? If so, please send us your photo.

 
Sectional chart

 
Airport distance calculator
Flying to Arthur Airport? Find the distance to fly.

From to 1A2

Sunrise and sunset
Times for 19-Jul-2018
 Local
(UTC-5)
 Zulu
(UTC)
Morning civil twilight05:1610:16
Sunrise05:5410:54
Sunset21:1602:16
Evening civil twilight21:5402:54

Current date and time
Zulu (UTC)  20-Jul-2018 02:12:29
Local (UTC-5)  19-Jul-2018 21:12:29
 
METAR
KFAR 
19nm SE 
200153Z 07005KT 10SM CLR 20/19 A2980 RMK AO2 SLP091 T02000189
KJKJ 
28nm SE 
200155Z AUTO 34003KT 10SM -DZ CLR 19/18 A2982 RMK AO2
KBAC 
35nm W 
200155Z AUTO 00000KT 10SM FEW110 19/19 A2985 RMK AO2
TAF
KFAR 
19nm SE 
191723Z 1918/2018 04007KT P6SM -SHRA OVC060 FM191900 02007KT 6SM SHRA VCTS OVC070CB FM192200 34008KT P6SM VCTS OVC070CB FM200500 31005KT P6SM BKN130
NOTAMs
Click for the latest NOTAMs
NOTAMs are issued by the DoD/FAA and will open in a separate window not controlled by AirNav.

 

 
 

Would you like to see your business listed on this page?

 If your business provides an interesting product or service to pilots, flight crews, aircraft, or users of the Arthur Airport, you should consider listing it here.  To start the listing process, click on the button below
 
Add a business
 

Other Pages about Arthur Airport

Update a link
 
Copyright © AirNav, LLC. All rights reserved. Privacy Policy  Contact